Hourly Weather Bolshie Sehnovichi

Today, 20 June, Sunday

Time Temperature Precipitation Wind Pressure Humidity
00:00 +19°C° 0 mm 2 mps 750 mmHg 88%
01:00 +19°C° 0 mm 2 mps 750 mmHg 90%
02:00 +19°C° 0 mm 2 mps 750 mmHg 91%
03:00 +19°C° 0 mm 2 mps 750 mmHg 91%
04:00 +19°C° 0 mm 2 mps 750 mmHg 91%
05:00 +18°C° 0 mm 2 mps 750 mmHg 91%
06:00 +20°C° 0 mm 2 mps 750 mmHg 86%
07:00 +22°C° 0 mm 3 mps 750 mmHg 80%
08:00 +24°C° 0 mm 3 mps 750 mmHg 75%
09:00 +26°C° 0 mm 4 mps 750 mmHg 71%
10:00 +27°C° 0 mm 4 mps 750 mmHg 67%
11:00 +28°C° 0 mm 5 mps 750 mmHg 64%
12:00 +29°C° 0.1 mm 5 mps 749 mmHg 61%
13:00 +29°C° 0.1 mm 5 mps 749 mmHg 58%
14:00 +30°C° 0.1 mm 5 mps 749 mmHg 55%
15:00 +30°C° 0.1 mm 4 mps 748 mmHg 56%
16:00 +30°C° 0.1 mm 4 mps 748 mmHg 57%
17:00 +30°C° 0.1 mm 3 mps 748 mmHg 59%
18:00 +28°C° 0.1 mm 3 mps 748 mmHg 65%
19:00 +27°C° 0.1 mm 3 mps 748 mmHg 72%
20:00 +26°C° 0.1 mm 3 mps 747 mmHg 79%
21:00 +25°C° 0.1 mm 3 mps 747 mmHg 82%
22:00 +24°C° 0.1 mm 3 mps 747 mmHg 85%
23:00 +22°C° 0.1 mm 3 mps 747 mmHg 88%

Tomorrow, 21 June, Monday

Time Temperature Precipitation Wind Pressure Humidity
00:00 +21°C° 0 mm 3 mps 747 mmHg 89%
01:00 +20°C° 0 mm 3 mps 747 mmHg 90%
02:00 +19°C° 0 mm 2 mps 747 mmHg 91%
03:00 +19°C° 0 mm 2 mps 747 mmHg 92%
04:00 +19°C° 0 mm 3 mps 747 mmHg 93%
05:00 +18°C° 0 mm 3 mps 747 mmHg 93%
06:00 +20°C° 0 mm 3 mps 747 mmHg 89%
07:00 +21°C° 0 mm 4 mps 747 mmHg 84%
08:00 +23°C° 0 mm 4 mps 747 mmHg 79%
09:00 +25°C° 0 mm 4 mps 747 mmHg 73%
10:00 +26°C° 0 mm 5 mps 747 mmHg 67%
11:00 +27°C° 0 mm 5 mps 747 mmHg 61%
12:00 +27°C° 0.2 mm 5 mps 746 mmHg 61%
13:00 +27°C° 0.2 mm 5 mps 746 mmHg 61%
14:00 +27°C° 0.2 mm 5 mps 746 mmHg 61%
15:00 +27°C° 0 mm 4 mps 746 mmHg 63%
16:00 +27°C° 0 mm 4 mps 746 mmHg 65%
17:00 +27°C° 0 mm 3 mps 746 mmHg 67%
18:00 +26°C° 0.1 mm 3 mps 745 mmHg 71%
19:00 +25°C° 0.1 mm 3 mps 745 mmHg 76%
20:00 +24°C° 0.1 mm 3 mps 745 mmHg 80%
21:00 +22°C° 0 mm 3 mps 745 mmHg 83%
22:00 +23°C° 0 mm 2 mps 745 mmHg 86%
23:00 +21°C° 0 mm 2 mps 745 mmHg 89%

Day after tomorrow, 22 June, Tuesday

Time Temperature Precipitation Wind Pressure Humidity
00:00 +20°C° 0 mm 2 mps 745 mmHg 90%
01:00 +20°C° 0 mm 2 mps 745 mmHg 91%
02:00 +20°C° 0 mm 2 mps 745 mmHg 93%
03:00 +19°C° 0 mm 2 mps 745 mmHg 93%
04:00 +19°C° 0 mm 2 mps 745 mmHg 94%
05:00 +19°C° 0 mm 2 mps 745 mmHg 94%
06:00 +21°C° 0 mm 3 mps 746 mmHg 88%
07:00 +24°C° 0 mm 3 mps 746 mmHg 81%
08:00 +25°C° 0 mm 4 mps 746 mmHg 75%
09:00 +27°C° 0 mm 4 mps 746 mmHg 69%
10:00 +28°C° 0 mm 4 mps 746 mmHg 63%
11:00 +29°C° 0 mm 5 mps 746 mmHg 58%
12:00 +30°C° 0 mm 5 mps 746 mmHg 55%
13:00 +30°C° 0 mm 4 mps 746 mmHg 52%
14:00 +32°C° 0 mm 4 mps 746 mmHg 49%
15:00 +32°C° 0 mm 4 mps 746 mmHg 50%
16:00 +32°C° 0 mm 4 mps 746 mmHg 52%
17:00 +31°C° 0 mm 3 mps 746 mmHg 54%
18:00 +29°C° 0 mm 3 mps 746 mmHg 60%
19:00 +28°C° 0 mm 3 mps 746 mmHg 66%
20:00 +27°C° 0 mm 2 mps 746 mmHg 72%
21:00 +26°C° 0 mm 2 mps 746 mmHg 74%
22:00 +25°C° 0 mm 2 mps 747 mmHg 76%
23:00 +24°C° 0 mm 2 mps 747 mmHg 79%

23 June, Wednesday

Time Temperature Precipitation Wind Pressure Humidity
00:00 +23°C° 0 mm 2 mps 747 mmHg 81%
01:00 +23°C° 0 mm 2 mps 747 mmHg 83%
02:00 +21°C° 0 mm 2 mps 747 mmHg 85%
03:00 +22°C° 0 mm 1 mps 747 mmHg 86%
04:00 +22°C° 0 mm 1 mps 747 mmHg 86%
05:00 +22°C° 0 mm 1 mps 747 mmHg 87%
06:00 +24°C° 0.1 mm 2 mps 747 mmHg 82%
07:00 +25°C° 0.1 mm 2 mps 748 mmHg 78%
08:00 +27°C° 0.1 mm 2 mps 748 mmHg 73%
09:00 +28°C° 0 mm 3 mps 748 mmHg 68%
10:00 +30°C° 0 mm 3 mps 748 mmHg 64%
11:00 +31°C° 0 mm 3 mps 748 mmHg 59%
12:00 +33°C° 0 mm 3 mps 748 mmHg 56%
13:00 +33°C° 0 mm 3 mps 748 mmHg 53%
14:00 +34°C° 0 mm 3 mps 748 mmHg 50%
15:00 +33°C° 0 mm 3 mps 748 mmHg 52%
16:00 +33°C° 0 mm 3 mps 748 mmHg 54%
17:00 +31°C° 0 mm 3 mps 748 mmHg 57%
18:00 +30°C° 0 mm 3 mps 748 mmHg 62%
19:00 +29°C° 0 mm 2 mps 748 mmHg 66%
20:00 +28°C° 0 mm 2 mps 748 mmHg 71%
21:00 +27°C° 0.1 mm 2 mps 748 mmHg 73%
22:00 +26°C° 0.1 mm 2 mps 748 mmHg 74%
23:00 +25°C° 0.1 mm 2 mps 748 mmHg 76%

24 June, Thursday

Time Temperature Precipitation Wind Pressure Humidity
00:00 +25°C° 0.2 mm 2 mps 748 mmHg 80%
01:00 +24°C° 0.2 mm 1 mps 748 mmHg 83%
02:00 +23°C° 0.2 mm 1 mps 749 mmHg 87%
03:00 +23°C° 0.2 mm 1 mps 749 mmHg 89%
04:00 +23°C° 0.2 mm 2 mps 749 mmHg 90%
05:00 +21°C° 0.2 mm 2 mps 749 mmHg 92%
06:00 +23°C° 0 mm 2 mps 749 mmHg 87%
07:00 +25°C° 0 mm 2 mps 749 mmHg 82%
08:00 +26°C° 0 mm 2 mps 749 mmHg 78%
09:00 +27°C° 0 mm 2 mps 749 mmHg 72%
10:00 +29°C° 0 mm 2 mps 749 mmHg 67%
11:00 +30°C° 0 mm 1 mps 749 mmHg 61%
12:00 +31°C° 0.4 mm 2 mps 749 mmHg 59%
13:00 +31°C° 0.4 mm 2 mps 749 mmHg 57%
14:00 +32°C° 0.4 mm 2 mps 749 mmHg 55%
15:00 +32°C° 0.1 mm 2 mps 748 mmHg 55%
16:00 +32°C° 0.1 mm 2 mps 748 mmHg 56%
17:00 +32°C° 0.1 mm 2 mps 748 mmHg 57%
18:00 +30°C° 0.5 mm 2 mps 748 mmHg 64%
19:00 +28°C° 0.5 mm 2 mps 748 mmHg 72%
20:00 +26°C° 0.5 mm 2 mps 748 mmHg 80%
21:00 +25°C° 0.8 mm 2 mps 748 mmHg 83%
22:00 +24°C° 0.8 mm 2 mps 748 mmHg 87%
23:00 +23°C° 0.8 mm 2 mps 748 mmHg 91%

25 June, Friday

Time Temperature Precipitation Wind Pressure Humidity
00:00 +23°C° 1.6 mm 2 mps 748 mmHg 92%
01:00 +21°C° 1.6 mm 2 mps 748 mmHg 94%
02:00 +21°C° 1.6 mm 2 mps 748 mmHg 95%
03:00 +21°C° 0 mm 2 mps 748 mmHg 95%
04:00 +21°C° 0 mm 2 mps 748 mmHg 95%
05:00 +21°C° 0 mm 3 mps 747 mmHg 94%
06:00 +23°C° 0 mm 2 mps 748 mmHg 91%
07:00 +23°C° 0 mm 2 mps 748 mmHg 88%
08:00 +24°C° 0 mm 1 mps 748 mmHg 84%
09:00 +26°C° 0 mm 1 mps 748 mmHg 78%
10:00 +27°C° 0 mm 2 mps 748 mmHg 72%
11:00 +28°C° 0 mm 2 mps 748 mmHg 66%
12:00 +28°C° 0.1 mm 2 mps 748 mmHg 66%
13:00 +28°C° 0.1 mm 2 mps 748 mmHg 66%
14:00 +28°C° 0.1 mm 3 mps 748 mmHg 66%
15:00 +28°C° 0.4 mm 3 mps 748 mmHg 67%
16:00 +28°C° 0.4 mm 2 mps 748 mmHg 69%
17:00 +27°C° 0.4 mm 2 mps 748 mmHg 70%
18:00 +26°C° 0.5 mm 2 mps 747 mmHg 75%
19:00 +25°C° 0.5 mm 3 mps 747 mmHg 80%
20:00 +24°C° 0.5 mm 3 mps 747 mmHg 86%
21:00 +22°C° 0.5 mm 3 mps 747 mmHg 88%
22:00 +21°C° 0.5 mm 3 mps 747 mmHg 91%
23:00 +20°C° 0.5 mm 3 mps 747 mmHg 94%
Show more